Location: Unspecified
(41.9000°N, 12.4830°E)
Time: 09:45:19

ISS - Pass Details

Date: 28 February 2018
Orbit: 403 x 406 km, 51.6° (Epoch: 21 March)

Event Time Altitude Azimuth Distance (km) Brightness Sun altitude
Exits shadow 04:37:18 12° 143° (SE) 1,340 -0.9 -24.8°
Maximum altitude 04:37:59 13° 130° (SE) 1,310 -0.8 -24.7°
Drops below altitude 10° 04:39:29 10° 103° (ESE) 1,461 -0.1 -24.4°
Sets 04:42:28 0° 73° (ENE) 2,325 1.4 -23.9°
